Tracking 31027 objects as of 19-Jul-2025
HD Live streaming from Space Station
objects crossing your sky now

QIANFAN-66

Track QIANFAN-66 now!
10-day predictions
QIANFAN-66 is classified as:


NORAD ID: 62796
Int'l Code: 2025-016M
Perigee: 1,063.1 km
Apogee: 1,088.7 km
Inclination: 89.0 °
Period: 106.6 minutes
Semi major axis: 7446 km
RCS: Unknown
Launch date: January 23, 2025
Source: People's Republic of China (PRC)
Launch site: Taiyaun Space Center, China (TSC)
Your satellite tracking list
FENGYUN 1C DEB
Track 1 satellite(s)




NASA's NSSDC Master Catalog

Two Line Element Set (TLE):
1 62796U 25016M   25199.81445940  .00000123  00000-0  17223-3 0  9999
2 62796  88.9864 118.1696 0017167  47.6687 312.5915 13.50958889 27457
Source of the keplerian elements: AFSPC